Regional Weather Roundup
Issued by NWS Cleveland, OH

Home | Current Version | Previous Version | Text Only | Print | Product List | Glossary Off
Versions: 1 2 3 4 5 6 7 8 9 10 11 12 13 14 15 16 17 18 19 20 21 22 23 24 25 26 27 28 29 30 31 32 33 34 35 36 37 38 39 40 41 42 43 44 45 46 47 48 49 50

327
ASUS41 KCLE 220502
RWRCLE
OHIO REGIONAL WEATHER ROUNDUP
NATIONAL WEATHER SERVICE CLEVELAND, OH
100 AM EDT FRI MAY 22 2015

NOTE: "FAIR" INDICATES FEW OR NO CLOUDS BELOW 12,000 FEET WITH NO
SIGNIFICANT WEATHER AND/OR OBSTRUCTIONS TO VISIBILITY.

OHZ001>008-015>018-024>027-034-035-043-044-220600-
   NORTHWEST OHIO

CITY           SKY/WX    TMP DP  RH WIND       PRES   REMARKS
DEFIANCE       CLEAR     47  36  65 SW6       30.04S
FINDLAY        CLEAR     47  38  71 SW6       30.04S
TOLEDO EXPRESS CLEAR     50  34  54 SW5       30.02S
TOLEDO EXEC    PTCLDY    49  36  61 SW5       30.03S
LIMA           CLEAR     50  39  66 SW7       30.07R
$$

OHZ009>014-019>023-028>033-038-089-220600-
   NORTHEAST OHIO

CITY           SKY/WX    TMP DP  RH WIND       PRES   REMARKS
CLE-HOPKINS    CLEAR     49  37  63 SW8       30.04R
CLE-LAKEFRONT  CLEAR     53  38  56 SW14      30.00S
CUY CO. ARPT   NOT AVBL
LORAIN-ELYRIA  CLEAR     47  38  71 SW8       30.04R
ASHTABULA      CLEAR     47  37  68 SW6       30.00R
AKRON-CANTON   CLEAR     47  36  65 SW7       30.04S
WOOSTER        CLEAR     45  37  73 W7        30.06R
MANSFIELD      CLEAR     45  36  70 SW6       30.06R
YOUNGSTOWN     CLEAR     45  36  70 SW8       30.01S
$$

OHZ042-051>053-060>062-070>072-077>081-220600-
  SOUTHWEST OHIO

CITY           SKY/WX    TMP DP  RH WIND       PRES   REMARKS
CINC-COVINGTON CLEAR     47  41  80 SW5       30.14S
CINC-LUNKEN    CLEAR     43  41  93 CALM      30.15S
HAMILTON       CLEAR     42  40  92 CALM      30.14S
DAYTON         CLEAR     49  40  71 SW9       30.11R
WRIGHT-PAT AFB CLEAR     45  40  83 SW6       30.10S
DAYTON GENERAL CLEAR     47  40  76 SW3       30.11S
WILMINGTON     CLEAR     44  39  82 SW6       30.12S
$$

OHZ036-037-039>041-045>050-054>059-063>069-073>076-082>088-220600-
  CENTRAL AND SOUTHEAST OHIO

CITY           SKY/WX    TMP DP  RH WIND       PRES   REMARKS
COLUMBUS       CLEAR     47  40  76 S3        30.09S
OSU AIRPORT    CLEAR     47  39  74 SW6       30.09S
BOLTON FIELD   NOT AVBL
RICKENBACK AFB NOT AVBL
NEWARK         CLEAR     43  39  86 CALM      30.09R
MARION         CLEAR     48  37  65 SW7       30.07R
LANCASTER      CLEAR     41  38  89 S3        30.10S
ZANESVILLE     CLEAR     44  40  85 SW3       30.09R
NEW PHILLY     CLEAR     45  41  86 SE3       30.07S FOG
$$



USA.gov is the U.S. government's official web portal to all federal, state and local government web resources and services.